Retour au catalogue

STARLINK-34627

ActifCommunicationsVLEO
NORAD 65016·PAYLOAD·🇺🇸 United States

Lancé Jul 30, 2025 depuis Cape Canaveral Space Force Station

Loading…

Prochains Passages (prochaines 24 heures)

TLE

FraisSource: CelesTrak SupGP

Époque: Sep 15, 2026, 02:26 UTC

1 65016C 25161B   26258.10187500  .00034437  00000+0  10176-2 0  2583
2 65016  53.1577 132.7863 0001299  83.4941 237.0501 15.34369162    17

Suivez STARLINK-34627 en temps réel avec AllMySat

Download on the App Store